Dewpoint
57 57 57 57 57 57 57 57 57 57 56 55 55 55 55 55 56 56 57 57 57 57 57 58 59 61 53 39 38 37 70 66 55 45 38 35 34 36 34 36 36 38 40 45 48 46 51
57 57 57 57 57 57 57 57 57 56 55 55 55 55 55 55 55 56 57 57 57 57 57 58 59 61 52 33 32 39 47 52 44 41 39 34 35 34 37 39 36 35 40 45 45 45 46
58 57 57 57 57 57 57 56 56 55 55 55 55 55 54 54 55 55 56 56 56 56 57 58 60 57 48 30 36 36 46 49 42 38 33 33 34 33 35 35 37 34 39 43 39 33 43
58 58 57 57 57 57 57 56 56 54 55 54 54 54 54 54 55 55 56 56 56 57 57 59 60 54 36 37 39 31 28 23 31 32 31 32 33 33 36 35 33 35 37 36 41 36 36
58 58 58 58 58 57 57 57 56 55 54 54 54 54 54 54 54 55 55 55 56 57 58 59 53 49 35 46 28 28 22 22 31 29 29 27 29 30 28 29 28 34 31 39 42 38 34
58 58 58 57 57 57 57 57 56 54 54 54 54 54 54 54 54 55 54 55 55 55 55 54 50 40 38 36 21 19 20 20 29 29 27 27 25 23 23 25 23 31 34 36 34 36 35
57 57 57 57 57 57 57 57 56 54 54 54 54 53 53 53 54 54 52 48 36 41 46 27 29 37 35 37 16 12 14 25 29 27 23 25 22 21 20 23 25 27 26 29 29 35 30
57 57 57 57 57 57 57 57 56 54 54 54 53 53 53 53 54 54 50 44 40 38 32 37 37 35 33 30 18 15 24 27 30 25 28 24 21 21 22 22 23 25 23 20 26 34 30
57 57 57 57 57 57 57 56 55 54 54 53 53 53 52 53 53 50 46 42 41 36 31 32 37 32 32 25 22 22 27 27 27 27 25 24 23 23 22 20 20 18 19 19 20 29 29
57 57 57 57 57 57 56 56 55 54 54 53 53 53 52 52 48 46 41 38 38 37 30 31 30 29 27 24 23 25 28 27 27 25 25 24 25 22 19 19 17 31 18 23 28 27 22
57 57 57 57 57 57 56 56 56 54 53 53 53 52 52 52 49 47 43 46 38 35 30 34 27 27 21 22 25 26 28 28 24 25 25 23 22 19 17 14 15 14 18 26 32 31 29
57 57 57 57 57 57 56 56 55 54 54 53 53 52 52 50 48 48 47 46 35 31 28 28 27 21 22 24 25 27 27 28 28 27 25 24 23 20 16 18 17 20 22 25 38 36 30
56 56 57 57 57 56 56 56 55 55 53 54 53 51 50 50 44 48 45 37 30 28 31 28 28 24 24 24 24 24 23 23 22 21 22 25 24 18 21 20 20 22 20 20 29 34 31
56 56 56 56 56 56 56 56 55 54 54 53 52 50 50 49 49 45 43 34 31 33 37 36 27 27 25 25 23 25 23 21 23 24 24 24 26 19 19 19 19 22 20 21 23 31 30
56 56 56 56 56 56 56 56 55 54 53 52 50 47 48 48 49 44 38 32 31 39 40 35 22 23 23 24 24 24 23 23 22 24 27 27 27 29 23 23 22 24 23 24 22 31 28
56 56 56 56 56 56 56 56 55 54 53 51 50 48 46 47 44 43 38 35 32 37 36 30 25 24 24 24 23 24 25 30 31 32 30 28 25 28 31 25 25 34 24 23 25 24 26
57 56 56 56 55 56 56 56 55 54 52 51 49 46 48 42 43 40 34 34 32 31 29 32 28 37 39 33 30 31 31 30 30 29 30 36 26 25 29 28 25 22 23 25 29 29 27
57 57 56 56 55 56 56 56 55 53 51 50 50 43 43 42 37 39 35 34 36 30 29 26 28 39 39 37 34 30 30 30 33 31 32 34 26 23 22 25 23 22 22 27 28 27 27
55 56 56 56 56 56 56 55 54 53 51 48 47 49 39 40 33 34 34 32 30 28 29 31 32 32 38 40 39 33 31 32 33 32 30 33 25 18 19 19 23 21 19 17 24 29 21
54 54 55 56 56 56 56 55 54 53 51 49 47 43 35 37 37 38 31 31 33 31 31 32 35 33 30 31 31 30 31 30 30 30 53 38 22 19 17 18 23 21 21 19 19 16 18
53 54 54 55 56 56 56 55 55 53 51 50 47 45 42 38 30 32 30 31 31 28 31 32 32 32 31 29 29 28 29 28 28 46 33 21 19 33 26 25 26 24 22 22 21 15 12
53 53 53 54 55 56 56 56 55 54 51 46 39 40 42 42 43 35 34 31 34 31 32 32 34 33 32 31 29 27 27 23 30 30 28 27 24 30 24 27 29 27 25 25 26 33 44
52 52 53 54 54 56 56 56 55 54 50 47 47 46 44 43 39 34 33 35 34 37 35 32 36 34 32 31 30 28 28 27 24 25 20 25 25 25 26 28 29 25 31 29 34 34 42
53 52 51 53 54 55 56 56 56 55 53 48 48 47 45 41 39 35 31 35 34 34 35 33 34 33 33 27 24 33 29 24 21 25 21 26 29 29 25 29 24 28 32 38 37 38 40
52 51 51 52 53 54 56 56 56 55 54 49 49 47 46 41 41 36 33 35 31 32 32 33 34 31 27 24 22 25 27 25 24 22 20 25 30 28 25 28 27 32 33 30 34 37 39
51 51 51 51 52 54 54 56 56 56 55 50 49 52 48 45 38 38 35 34 34 33 33 31 31 27 24 25 24 25 23 29 30 29 27 33 29 26 29 25 24 35 37 38 31 35 40
50 50 50 50 52 53 54 55 55 56 55 52 49 51 48 44 44 41 34 32 37 34 34 36 36 29 28 27 25 25 25 31 28 30 28 32 34 27 30 28 34 38 38 38 30 31 44
49 49 49 49 51 52 53 55 55 55 56 53 49 51 48 45 44 43 42 36 37 41 37 37 37 37 35 31 31 32 33 33 32 32 32 29 33 33 30 31 30 40 38 35 39 44 45
48 49 48 49 50 51 52 54 55 55 55 54 48 50 50 49 43 45 44 44 38 37 35 35 35 36 37 35 36 37 33 33 32 30 33 31 31 31 29 33 37 41 41 45 45 45 45
Lifted_Index
13 13 12 12 12 12 12 13 13 13 13 13 13 12 12 11 12 12 13 13 13 13 13 13 12 10 9 7 6 6 6 5 5 3 2 3 4 4 3 3 2 2 1 0 0 0 -0
12 12 12 12 12 12 12 12 13 13 13 13 13 13 12 11 11 12 12 13 13 13 13 13 12 10 8 7 7 6 6 5 4 3 3 4 4 4 3 3 2 2 1 1 1 0 0
12 12 12 12 12 12 12 12 12 12 13 13 13 13 13 12 11 11 12 12 13 13 13 12 11 9 8 8 7 7 6 5 4 4 4 4 5 4 3 3 3 2 2 1 1 1 1
11 11 12 12 12 12 12 12 12 12 12 13 13 13 13 12 11 11 11 12 12 12 12 11 10 9 8 8 8 8 7 6 6 5 5 5 5 4 2 2 2 2 2 2 1 1 2
11 11 11 11 12 12 12 11 11 11 12 12 13 13 13 12 11 11 11 12 12 12 11 10 9 8 7 7 8 8 7 7 6 6 6 6 5 3 2 2 2 2 1 1 1 2 2
10 10 11 11 11 11 11 11 11 11 12 12 12 13 13 12 11 11 11 11 11 11 10 9 8 7 7 7 7 7 7 6 6 6 6 5 4 3 2 2 2 2 1 1 1 2 2
10 10 10 11 11 11 11 11 11 11 11 12 12 12 12 12 11 11 10 10 9 9 9 8 7 7 7 7 7 7 6 6 6 6 5 5 4 3 3 3 3 2 1 1 1 2 2
10 10 10 10 10 10 10 11 11 11 11 11 12 11 11 11 11 10 9 8 8 7 7 7 6 6 7 7 7 7 6 6 6 5 5 5 4 3 3 4 4 3 2 1 1 1 1
9 9 9 9 9 10 10 10 10 10 11 11 11 10 10 10 10 10 9 8 7 7 6 5 6 6 6 6 6 6 6 6 6 5 5 4 4 4 4 4 3 2 2 2 1 1 1
9 8 8 9 9 10 10 10 10 10 10 11 10 9 9 10 9 8 7 7 7 6 5 4 4 5 6 6 6 6 6 6 5 5 5 4 4 4 4 3 3 2 2 2 2 1 1
8 8 8 8 9 9 9 10 10 9 10 10 9 8 9 9 7 6 6 6 6 5 3 3 4 5 5 5 5 5 5 5 5 5 4 4 4 4 3 3 3 3 2 2 2 1 1
7 7 7 8 8 9 9 9 9 9 9 8 7 7 8 8 6 5 5 5 5 3 2 2 3 4 5 5 5 5 5 4 4 4 3 3 3 3 3 3 3 2 1 1 1 1 0
8 7 7 7 8 8 9 9 10 9 8 7 6 7 8 7 5 5 5 5 3 2 2 2 2 3 4 4 4 4 3 3 2 2 2 2 2 2 2 2 2 2 1 1 0 0 -0
8 7 7 7 7 8 8 9 9 9 8 6 6 7 7 6 5 5 5 4 2 1 2 1 1 2 2 3 3 2 2 2 2 2 2 1 1 1 2 2 2 1 1 1 0 -0 -0
7 7 7 7 7 7 8 8 9 8 7 6 6 6 6 6 5 5 4 3 1 1 1 1 1 1 1 1 2 1 1 1 2 2 2 1 1 1 1 1 1 1 1 1 0 -0 -0
6 6 6 6 7 7 7 8 8 7 6 5 4 4 5 5 5 4 3 2 1 1 1 1 0 -0 -0 0 1 0 0 1 2 2 1 0 0 1 1 1 1 1 1 0 0 0 -0
7 7 7 6 6 6 7 7 8 7 5 4 2 2 3 5 5 4 3 2 1 2 1 1 0 -0 -0 -0 -0 -0 -0 0 1 1 1 1 0 1 1 1 1 1 1 1 0 0 0
8 8 8 7 7 6 6 7 7 6 4 2 1 1 3 4 5 4 3 2 2 2 1 1 0 -0 0 0 -0 -0 -0 -0 1 1 1 1 1 1 1 1 2 2 1 1 1 1 1
10 10 9 9 7 6 6 6 6 5 3 1 0 1 3 4 4 3 3 2 2 2 2 1 0 0 0 0 0 0 0 1 1 2 2 2 2 1 1 1 2 2 2 2 1 1 1
10 10 10 10 9 7 6 6 6 5 2 1 -0 1 2 4 3 3 2 2 2 2 2 2 1 1 0 0 1 1 2 2 3 4 4 3 3 3 2 2 3 2 2 2 1 1 1
11 11 11 10 9 8 6 6 6 5 3 1 -0 0 2 3 3 2 2 2 2 2 2 2 2 2 1 1 1 2 2 3 4 4 4 4 4 4 4 4 4 3 2 2 2 1 1
11 11 11 11 10 9 7 6 6 5 4 2 2 1 1 2 2 2 2 2 2 2 3 3 3 3 2 2 2 2 3 3 4 4 4 4 4 4 4 4 4 3 3 3 3 2 1
12 12 12 11 11 10 9 7 7 6 6 5 4 3 2 2 2 2 3 2 2 2 3 4 4 3 3 3 3 3 3 3 4 4 5 5 5 4 4 4 3 3 4 4 3 2 2
13 13 12 12 11 11 10 8 7 7 7 6 6 5 3 2 2 3 3 3 3 3 3 4 3 3 3 4 4 4 4 4 4 5 5 6 5 5 4 3 3 3 4 4 3 3 3
14 14 13 13 12 11 10 9 8 7 7 6 6 5 4 3 3 3 3 3 3 3 3 3 4 4 4 4 4 4 4 4 4 4 5 6 5 5 4 3 3 4 4 4 3 3 3
14 14 14 14 13 12 11 10 8 7 7 6 6 6 5 4 3 3 3 3 3 3 3 4 5 5 5 5 5 4 4 4 4 4 5 5 5 4 4 3 3 4 4 4 3 3 4
14 14 15 15 14 13 12 11 9 8 7 6 6 6 6 5 4 3 3 3 4 4 4 5 5 5 5 5 5 4 4 4 4 4 4 4 4 4 3 3 3 4 4 4 4 4 4
14 14 15 15 15 13 12 11 10 9 7 6 6 6 6 6 5 4 4 5 5 5 5 5 5 5 5 5 5 4 4 4 3 3 3 3 3 3 3 3 4 4 4 4 4 4 4
14 14 15 16 15 14 13 12 11 9 8 7 6 6 6 6 6 5 5 5 6 5 5 5 5 5 5 5 4 4 4 3 3 3 3 3 2 3 3 3 4 5 5 4 4 4 4